Regional Weather Roundup
Issued by NWS Charleston, SC

Current Version | Previous Version | Graphics & Text | Print | Product List | Glossary On
Versions: 1 2 3 4 5 6 7 8 9 10 11 12 13 14 15 16 17 18 19 20 21 22 23 24 25 26 27 28 29 30 31 32 33 34 35 36 37 38 39 40 41 42 43 44 45 46 47 48 49 50
000
ASUS42 KCHS 021127
RWRCHS

REGIONAL WEATHER ROUNDUP
NATIONAL WEATHER SERVICE CHARLESTON SC
600 AM EST FRI DEC 02 2016

NOTE: "FAIR" INDICATES FEW OR NO CLOUDS BELOW 12,000 FEET WITH NO
SIGNIFICANT WEATHER AND/OR OBSTRUCTIONS TO VISIBILITY.

NOT ALL STATIONS ARE QUALITY CONTROLLED. USE DATA WITH CAUTION...
ESPECIALLY DEWPOINT OBSERVATIONS.

SCZ027-030-031-034>040-042>050-021200-
...SOUTHEAST SOUTH CAROLINA...

CITY           SKY/WX    TMP DP  RH WIND       PRES   REMARKS
N CHARLESTON   PTCLDY    42  35  76 NW6       30.10R
WATERFRONT PRK   N/A     46  38  73 NW6       30.08R
MOUNT PLEASANT FAIR      43  37  81 NW3       30.10R
JOHNS ISLAND   FAIR      41  36  81 W5        30.11R
PINOPOLIS        N/A     52  39  62 N8        30.01R
MONCKS CORNER  FAIR      36  34  93 CALM      30.11R
SUMMERVILLE    FAIR      36  36 100 CALM      30.12R
BEAUFORT MCAS  PTCLDY    44  34  67 W5        30.12R
BEAUFORT ARPT  FAIR      45  36  70 NW6       30.12R
HILTON HEAD IS NOT AVBL
WALTERBORO     CLOUDY    39  39 100 NW3       30.13R
ALLENDALE      FAIR      41  34  75 NW3       30.12R

...SOUTHERN MIDLANDS AND PEE DEE...

CITY           SKY/WX    TMP DP  RH WIND       PRES   REMARKS
GEORGETOWN     NOT AVBL
KINGSTREE      FAIR      32  32 100 CALM      30.12R
ORANGEBURG     PTCLDY    39  34  82 CALM      30.12R
BARNWELL       NOT AVBL
AIKEN          FAIR      36  32  87 CALM      30.16R
MANNING        NOT AVBL
COLUMBIA       CLEAR     37  33  85 CALM      30.12R
SUMTER         CLEAR     41  34  76 N3        30.10R
FLORENCE       CLEAR     41  35  79 N7        30.11R
MYRTLE BEACH   CLEAR     45  36  70 N8        30.11R
N MYRTLE BEACH NOT AVBL

$$

GAZ063-065-086>088-099>101-113>116-118-119-134>141-150-021200-
...SOUTHEAST GEORGIA...

CITY           SKY/WX    TMP DP  RH WIND       PRES   REMARKS
SAVANNAH ARPT  NOT AVBL
HUNTER AAF     CLEAR     39  36  89 W5        30.11R WCI  35
FORT STEWART   CLEAR     40  35  83 CALM      30.12R
STATESBORO     PTCLDY    42  36  79 W3        30.14R
SYLVANIA       MOSUNNY  N/A N/A N/A CALM      30.14R
CLAXTON        FAIR     N/A N/A N/A W3        30.15R

...CSRA...CENTRAL AND FAR SOUTHEAST GEORGIA...

CITY           SKY/WX    TMP DP  RH WIND       PRES   REMARKS
THOMSON        CLEAR     35  35  99 CALM      30.19R
AUGUSTA-BUSH   CLEAR     36  32  85 CALM      30.13R
AUGUSTA-DANIEL CLEAR     41  32  70 NW7       30.13R
SWAINSBORO     FAIR      36  34  93 NW3       30.16R
VIDALIA        CLEAR     43  36  75 NW3       30.16R
EASTMAN        FAIR      36  30  78 CALM      30.20R
HAZLEHURST     FAIR      40  39  98 CALM      30.16R
ALMA           CLEAR     37  35  92 CALM      30.16R
WAYCROSS       CLEAR     41  40  96 CALM      30.17R
JESUP          FAIR      37  37 100 CALM      30.16R
BAXLEY         FAIR      39  36  87 NW3       30.16R
BRUNSWICK      CLEAR     37  37 100 CALM      30.16R
SAINT SIMONS   CLEAR     47  35  63 N7        30.14R

$$

SCZ027-028-034-036>038-045-046-048>050-GAZ119-141-021200-
...LAKE AND SUPPLEMENTAL COASTAL OBSERVATIONS...

STATION/POSITION TIME  TEMP    WIND        PRES    WAVE   SWELL
                       AIR SEA DIR/SP/G            HT/PER HT/PER/DIR
                 (UTC) (F)     (DEG/KT/KT) (MB)    (FT/S) (FT/S/D)
WINYAH BAY       1045   43     330/  5     1017.0S
LAKE MURRAY      1030   42      CALM  /  1 1019.0R
ACE BASIN NERRS  1045   43        CALM     1019.0R
FORT PULASKI     1100   48 63  320/ 11/ 13 1020.1
SAPELO ISLAND    1100   47     320/  6     1020.0

$$

ANZ835-935-AMZ111-154-330-350-352-354-370-450-454-472-021200-
...C-MAN AND BUOY OBSERVATIONS...

STATION/POSITION TIME  TEMP    WIND        PRES    WAVE   SWELL
                       AIR SEA DIR/SP/G            HT/PER HT/PER/DIR
                 (UTC) (F)     (DEG/KT/KT) (MB)    (FT/S) (FT/S/D)
BUOY 41004       1050   58 74  330/ 10/ 14 1017.8R   4/ 5   3/260/ 5
BUOY 41008       1050   56 65  340/ 17/ 19 1019.7R   4/ 5   2/150/ 9
FOLLY BEACH CMAN 1100   45     300/  4/  7 1019.6R
CAPERS NEARSHORE 1008   50 63  320/ 12/ 16 1017.8R
FRIPP NEARSHORE  1108   51 63  320/ 14/ 17 1019.2R


STATION/POSITION TIME  TEMP    WIND        PRES    WAVE   SWELL
                       AIR SEA DIR/SP/G            HT/PER HT/PER/DIR
                 (UTC) (F)     (DEG/KT/KT) (MB)    (FT/S) (FT/S/D)
5E ST. MARYS GA  1100      67                N/A     4/ 5
FRYING PAN BUOY  1100   59 75  360/ 17/ 23 1017.3
BUOY 41025       1050   58 76  340/ 14/ 17 1016.2    3/ 8   3/180/ 8
CAPE LOOKOUT NC  1100   47     350/ 12/ 14 1017.0R
BUOY 41002       1050   72 74  300/ 14/ 16 1015.0R   6/ 8   5/300/ 8
BUOY 41010       NOT AVBL
ST AUGUSTINE FL  1100   52 67  320/  8/ 10 1021.0R


$$




USA.gov is the U.S. government's official web portal to all federal, state and local government web resources and services.